This is the latest recevied weather packets stored in our database for station/object KG5EO. If no packets are shown the sender has not sent any weather packets the latest 1 day(s).
| Time | Temp. | Humidity | Pressure | Rain* | Wind** | Luminosity | Snow |
|---|---|---|---|---|---|---|---|
| 1778022074 | 25.56° C | 26% | 40.9 hPa | 0 mm | 4.92 m/s, 252° | - | - |
| 1778021774 | 25° C | 26% | 40.9 hPa | 0 mm | 1.34 m/s, 314° | - | - |
| 1778021474 | 25° C | 26% | 40.9 hPa | 0 mm | 2.68 m/s, 270° | - | - |
| 1778021173 | 25° C | 26% | 40.9 hPa | 0 mm | 1.79 m/s, 263° | - | - |
| 1778020873 | 25° C | 26% | 40.9 hPa | 0 mm | 2.68 m/s, 228° | - | - |
| 1778020573 | 25° C | 27% | 40.9 hPa | 0 mm | 2.24 m/s, 252° | - | - |
| 1778020273 | 25.56° C | 26% | 40.9 hPa | 0 mm | 0 m/s | - | - |
| 1778019974 | 25.56° C | 26% | 40.9 hPa | 0 mm | 2.68 m/s, 290° | - | - |
| 1778019673 | 25.56° C | 27% | 40.9 hPa | 0 mm | 2.68 m/s, 304° | - | - |
| 1778019373 | 25.56° C | 27% | 40.9 hPa | 0 mm | 2.24 m/s, 245° | - | - |
| 1778019074 | 25° C | 27% | 40.9 hPa | 0 mm | 4.02 m/s, 262° | - | - |
| 1778018772 | 25.56° C | 26% | 40.9 hPa | 0 mm | 4.47 m/s, 268° | - | - |
| 1778018472 | 25° C | 30% | 40.9 hPa | 0 mm | 0.89 m/s, 262° | - | - |
| 1778018172 | 25.56° C | 29% | 40.9 hPa | 0 mm | 3.13 m/s, 294° | - | - |
| 1778017872 | 25.56° C | 28% | 40.9 hPa | 0 mm | 3.13 m/s, 304° | - | - |
| 1778017572 | 25° C | 28% | 40.9 hPa | 0 mm | 1.79 m/s, 312° | - | - |
| 1778017271 | 25° C | 28% | 40.9 hPa | 0 mm | 2.24 m/s, 284° | - | - |
| 1778016971 | 25° C | 28% | 40.9 hPa | 0 mm | 1.79 m/s, 276° | - | - |
| 1778016673 | 25° C | 28% | 40.9 hPa | 0 mm | 2.68 m/s, 303° | - | - |
| 1778016371 | 25° C | 28% | 40.9 hPa | 0 mm | 1.79 m/s, 305° | - | - |
| 1778016072 | 25.56° C | 28% | 40.9 hPa | 0 mm | 3.58 m/s, 248° | - | - |
| 1778015771 | 25° C | 29% | 40.9 hPa | 0 mm | 2.24 m/s, 260° | - | - |
| 1778015471 | 25° C | 28% | 40.9 hPa | 0 mm | 3.13 m/s, 276° | - | - |
| 1778015171 | 25.56° C | 28% | 40.9 hPa | 0 mm | 1.34 m/s, 257° | - | - |
| 1778014871 | 25° C | 28% | 40.9 hPa | 0 mm | 2.68 m/s, 292° | - | - |
* Rain latest hour (hover to see other rain measurements)
** Current wind speed in m/s (hover to see current wind gust speed)